Location: Maddington
(51.2000°N, 1.9167°W)
Time: 12:40:23
(UTC+00:00)

Cosmos 1269 Rocket - Pass Details

Date: 18 September 2020
Orbit: 772 x 780 km, 74.1° (Epoch: 21 October)

Event Time Altitude Azimuth Distance (km) Brightness Sun altitude
Rises 21:13:51 0° 332° (NNW) 3,275 8.4 -26.5°
Reaches altitude 10° 21:16:17 10° 328° (NNW) 2,343 7.4 -26.8°
Maximum altitude 21:21:28 55° 252° (WSW) 935 4.5 -27.4°
Enters shadow 21:21:56 53° 231° (SW) 956 4.4 -27.5°
